Charleroi, Belgium

10:53 PM CEST on September 19, 2017 (GMT +0200)
Brussels South

Weather History for EBCI - April, 2013

Change the Weather History Date:

Wednesday, April 10, 2013

  Actual Average Record
Temperature  
Mean Temperature 45 °F -  
Max Temperature 48 °F 58 °F 73 °F (2009)
Min Temperature 42 °F 41 °F 30 °F (2003)
Degree Days  
Heating Degree Days 20    
Moisture  
Dew Point 42 °F    
Average Humidity 87    
Maximum Humidity 93    
Minimum Humidity 68    
Precipitation  
Precipitation 0.02 in - - ()
Sea Level Pressure  
Sea Level Pressure 29.66 in    
Wind  
Wind Speed 8 mph ()    
Max Wind Speed 17 mph    
Max Gust Speed -    
Visibility 4.4 miles    
Events Rain    
Averages and records for this station are not official NWS values.
T = Trace of Precipitation, MM = Missing Value Source: Averaged Metar Reports

Daily Weather History Graph

Daily Weather History Graph

Search for Another Location

Airport or City:

Trip Planner

Search our weather history database for the weather conditions in past years. The results will help you decide how hot, cold, wet, or windy it might be!

Date:

Astronomy

Apr. 10, 2013 Rise Set
Actual Time 6:58 AM CEST 8:29 PM CEST
Civil Twilight 6:24 AM CEST 9:03 PM CEST
Nautical Twilight 5:43 AM CEST 9:44 PM CEST
Astronomical Twilight 4:58 AM CEST 10:30 PM CEST
Moon 6:44 AM CEST (4/10) 8:54 PM CEST (4/10)
Length of Visible Light 14h 38m
Length of Day
13h 30m
New Moon, 0% of the Moon is Illuminated
Apr 10
New Moon
Apr 18
First Quarter
Apr 25
Full
May 2
Last Quarter
May 10
New

Hourly Weather History & Observations

Time (CEST) Temp. Windchill Dew Point Humidity Pressure Visibility Wind Dir Wind Speed Gust Speed Precip Events Conditions
12:20 AM 44.6 °F 41.4 °F 41.0 °F 87% 29.53 in 6.2 mi South 5.8 mph - N/A   Mostly Cloudy
12:50 AM 44.6 °F 40.2 °F 41.0 °F 87% 29.53 in 6.2 mi SSW 8.1 mph - N/A   Mostly Cloudy
1:20 AM 44.6 °F 40.2 °F 41.0 °F 87% 29.53 in 6.2 mi SSW 8.1 mph - N/A   Mostly Cloudy
1:50 AM 44.6 °F 40.2 °F 42.8 °F 93% 29.53 in 6.2 mi SW 8.1 mph - N/A   Mostly Cloudy
2:20 AM 44.6 °F 39.2 °F 42.8 °F 93% 29.53 in 6.2 mi SW 10.4 mph - N/A   Mostly Cloudy
2:50 AM 44.6 °F 39.7 °F 42.8 °F 93% 29.56 in 3.7 mi SW 9.2 mph - N/A   Mostly Cloudy
3:20 AM 44.6 °F 39.2 °F 42.8 °F 93% 29.56 in 3.7 mi SW 10.4 mph - N/A   Mostly Cloudy
3:50 AM 44.6 °F 39.7 °F 42.8 °F 93% 29.56 in 3.7 mi SW 9.2 mph - N/A   Mostly Cloudy
4:20 AM 44.6 °F 39.7 °F 42.8 °F 93% 29.56 in 3.7 mi SW 9.2 mph - N/A   Mostly Cloudy
4:50 AM 44.6 °F 39.2 °F 41.0 °F 87% 29.56 in 3.7 mi SSW 10.4 mph - N/A Rain Light Rain
5:00 AM 44 °F - 42 °F 89% 29.60 in 4 mi SSW 11.2 mph - - Rain Light Rain
5:20 AM 44.6 °F 40.2 °F 42.8 °F 93% 29.56 in 3.7 mi SW 8.1 mph - N/A   Light Drizzle
5:50 AM 44.6 °F 40.7 °F 42.8 °F 93% 29.56 in 1.9 mi SSW 6.9 mph - N/A Rain Rain
6:20 AM 44.6 °F 40.2 °F 42.8 °F 93% 29.56 in 1.9 mi SSW 8.1 mph - N/A Rain Rain
6:50 AM 44.6 °F 39.2 °F 42.8 °F 93% 29.59 in 2.5 mi SW 10.4 mph - N/A Rain Rain
7:20 AM 44.6 °F 38.8 °F 42.8 °F 93% 29.59 in 3.7 mi SW 11.5 mph - N/A Rain Rain
7:50 AM 44.6 °F 37.4 °F 41.0 °F 87% 29.59 in 6.2 mi WSW 16.1 mph - N/A   Mostly Cloudy
8:00 AM 44 °F - 42 °F 89% 29.62 in 6 mi WSW 15.7 mph - - Rain Light Rain
8:20 AM 44.6 °F 37.2 °F 41.0 °F 87% 29.62 in 6.2 mi WSW 17.3 mph - N/A   Mostly Cloudy
8:50 AM 44.6 °F 37.8 °F 41.0 °F 87% 29.62 in 5.6 mi WSW 15.0 mph - N/A   Mostly Cloudy
9:20 AM 42.8 °F 35.8 °F 41.0 °F 93% 29.65 in 3.1 mi WSW 13.8 mph - N/A Rain Rain
9:50 AM 42.8 °F 36.6 °F 41.0 °F 93% 29.65 in 3.1 mi WSW 11.5 mph - N/A Rain Rain
10:20 AM 42.8 °F 37.0 °F 41.0 °F 93% 29.65 in 1.6 mi WSW 10.4 mph - N/A Rain Rain
10:50 AM 42.8 °F 36.6 °F 41.0 °F 93% 29.68 in 1.4 mi WSW 11.5 mph - N/A Rain Rain
11:00 AM 43 °F - 41 °F 92% 29.70 in 1 mi WSW 11.2 mph - - Rain Light Rain
11:20 AM 44.6 °F 39.2 °F 42.8 °F 93% 29.68 in - WSW 10.4 mph - N/A Rain Rain
11:50 AM 44.6 °F 39.7 °F 42.8 °F 93% 29.68 in - West 9.2 mph - N/A Rain Rain
12:20 PM 44.6 °F 40.2 °F 42.8 °F 93% 29.71 in - West 8.1 mph - N/A Rain Light Drizzle
12:50 PM 44.6 °F 39.7 °F 41.0 °F 87% 29.71 in 6.2 mi West 9.2 mph - N/A   Mostly Cloudy
1:20 PM 44.6 °F 40.2 °F 41.0 °F 87% 29.71 in 6.2 mi West 8.1 mph - N/A   Mostly Cloudy
1:50 PM 44.6 °F 39.7 °F 42.8 °F 93% 29.74 in 6.2 mi West 9.2 mph - N/A   Light Drizzle
2:00 PM 45 °F - 42 °F 85% 29.75 in 2 mi West 8.9 mph - - Rain Light Drizzle
2:20 PM 44.6 °F 39.7 °F 41.0 °F 87% 29.74 in 3.1 mi West 9.2 mph - N/A   Light Drizzle
2:50 PM 44.6 °F 39.7 °F 41.0 °F 87% 29.74 in 3.1 mi West 9.2 mph - N/A   Light Drizzle
3:20 PM 44.6 °F 39.2 °F 41.0 °F 87% 29.74 in 3.1 mi WSW 10.4 mph - N/A   Light Drizzle
3:50 PM 44.6 °F 38.4 °F 41.0 °F 87% 29.74 in 3.1 mi WSW 12.7 mph - N/A   Light Drizzle
4:20 PM 46.4 °F 42.4 °F 42.8 °F 87% 29.74 in 3.7 mi WSW 8.1 mph - N/A   Mostly Cloudy
4:50 PM 46.4 °F 42.9 °F 42.8 °F 87% 29.74 in 3.7 mi WSW 6.9 mph - N/A   Mostly Cloudy
5:00 PM 46 °F - 42 °F 82% 29.76 in 4 mi WSW 6.7 mph - -   Partly Cloudy
5:20 PM 46.4 °F 42.9 °F 41.0 °F 81% 29.74 in 4.3 mi WSW 6.9 mph - N/A   Mostly Cloudy
5:50 PM 46.4 °F 42.4 °F 42.8 °F 87% 29.74 in 4.3 mi WSW 8.1 mph - N/A   Mostly Cloudy
6:20 PM 48.2 °F - 41.0 °F 76% 29.74 in 4.3 mi WSW 5.8 mph - N/A   Mostly Cloudy
6:50 PM 48.2 °F - 41.0 °F 76% 29.74 in 5.6 mi SW 5.8 mph - N/A   Mostly Cloudy
7:20 PM 48.2 °F - 41.0 °F 76% 29.74 in 6.2 mi SW 5.8 mph - N/A   Partly Cloudy
7:50 PM 48.2 °F - 39.2 °F 71% 29.71 in 6.2 mi SSW 6.9 mph - N/A   Mostly Cloudy
8:00 PM 47 °F - 40 °F 68% 29.74 in 6 mi South 4.5 mph - -   Partly Cloudy
8:20 PM 48.2 °F - 39.2 °F 71% 29.71 in 6.2 mi South 4.6 mph - N/A   Mostly Cloudy
8:50 PM 46.4 °F 44.3 °F 39.2 °F 76% 29.71 in 5.6 mi SE 4.6 mph - N/A   Mostly Cloudy
9:20 PM 46.4 °F 43.5 °F 41.0 °F 81% 29.71 in 5.6 mi SE 5.8 mph - N/A Rain Light Rain
9:50 PM 46.4 °F 42.9 °F 41.0 °F 81% 29.68 in 5.0 mi SSE 6.9 mph - N/A Rain Light Rain
10:20 PM 46.4 °F 42.9 °F 41.0 °F 81% 29.68 in 4.3 mi SE 6.9 mph - N/A Rain Light Rain
10:50 PM 46.4 °F 42.9 °F 42.8 °F 87% 29.68 in 4.3 mi SE 6.9 mph - N/A Rain Light Rain
11:00 PM 46 °F - 42 °F 80% 29.69 in 4 mi SE 6.7 mph - - Rain Light Rain
11:20 PM 46.4 °F 42.9 °F 42.8 °F 87% 29.65 in 4.3 mi SE 6.9 mph - N/A Rain Light Rain
11:50 PM 44.6 °F 40.2 °F 42.8 °F 93% 29.62 in 4.3 mi SE 8.1 mph - N/A Rain Light Rain